Location: Kergrach
(48.3833°N, 4.5167°W)
Time: 11:08:14
(UTC+00:00)

SL-16 R/B - Pass Details

Date: 18 February 2020
Orbit: 843 x 847 km, 71.0° (Epoch: 08 April)

Event Time Altitude Azimuth Distance (km) Brightness Sun altitude
Exits shadow 06:11:03 17° 273° (W) 2,036 3.5 -12.3°
Maximum altitude 06:14:05 25° 315° (NW) 1,638 3.3 -11.8°
Drops below altitude 10° 06:18:44 10° 11° (N) 2,476 4.7 -11.0°
Sets 06:21:38 0° 24° (NNE) 3,414 5.6 -10.5°
